Flag for U.S.A. Weather past 2 weeks in Wichita, Kansas, U.S.A.

Now
89 °F

Partly sunny.


Feels Like: 87 °F
Forecast: 69 / 98 °F
Wind: 7 mph from North

Location: Wichita Mid-Continent Airport

Current Time: Jun 29, 2015 at 7:23:19 PM

Latest Report: Jun 29, 2015 at 6:53 PM


Visibility: 10 mi

Pressure: 29.89 "Hg

Humidity: 31%

Dew point: 55 °F

Location of WichitaLocation

Historic Weather in Wichita — Graph

°F

Wichita temperature yesterday

Maximum temperature yesterday: 98 °F (at 3:53 PM)
Minimum temperature yesterday: 65 °F (at 5:53 AM)
Average temperature yesterday: 82 °F

Past Weeks' High & Low Weather Summary

 TemperatureHumidityPressure
High98 °F (Jun 25, 2:53 PM)93% (Jun 15, 6:53 AM)30.10 "Hg (Jun 15, 6:53 AM)
Low65 °F (Jun 28, 5:53 AM)26% (Jun 28, 3:53 PM)29.75 "Hg (Jun 20, 5:53 PM)
Average81 °F62%29.93 "Hg
* Reported Jun 14 5:53 PM — Jun 29 5:53 PM, Wichita, Weather by CustomWeather, © 2015

Note: Actual official high and low records may vary slightly from our data, if they occured in-between our weather recording intervals... More about our weather records

Advertising

Wichita weather history for previous 24 hours

 ConditionsComfort  
Time TempWeatherWind HumidityBarometerVisibility
5:53 PM
Mon, Jun 29
91 °FPartly sunny.9 mph28%29.89 "Hg10 mi
4:53 PM91 °FPartly sunny.9 mph28%29.91 "Hg10 mi
3:53 PM91 °FPartly sunny.6 mph28%29.93 "Hg10 mi
2:53 PM90 °FHigh level clouds.9 mph31%29.93 "Hg10 mi
1:53 PM87 °FPartly sunny.6 mph35%29.95 "Hg10 mi
12:53 PM86 °FPartly sunny.3 mph36%29.96 "Hg10 mi
11:53 AM86 °FPartly sunny.8 mph37%29.96 "Hg10 mi
10:53 AM83 °FPassing clouds.7 mph44%29.96 "Hg10 mi
9:53 AM80 °FPassing clouds.9 mph47%29.96 "Hg10 mi
8:53 AM77 °FPassing clouds.8 mph52%29.95 "Hg10 mi
7:53 AM73 °FPassing clouds.7 mph59%29.93 "Hg10 mi
6:53 AM66 °FPassing clouds.No wind78%29.93 "Hg10 mi
5:53 AM70 °FPassing clouds.5 mph66%29.90 "Hg10 mi
4:53 AM69 °FPassing clouds.8 mph70%29.90 "Hg10 mi
3:53 AM70 °FPassing clouds.5 mph68%29.89 "Hg10 mi
2:53 AM75 °FPassing clouds.5 mph54%29.89 "Hg10 mi
1:53 AM74 °FPassing clouds.No wind57%29.90 "Hg10 mi
12:53 AM77 °FPassing clouds.6 mph50%29.87 "Hg10 mi
11:53 PM
Sun, Jun 28
82 °FPassing clouds.7 mph44%29.86 "Hg10 mi
10:53 PM84 °FPassing clouds.7 mph41%29.86 "Hg10 mi
9:53 PM87 °FSunny.9 mph36%29.84 "Hg10 mi
8:53 PM89 °FScattered clouds.8 mph35%29.82 "Hg10 mi
Weather by CustomWeather, © 2015

See weather overviewHow to use our weather pages